Regional Weather Roundup
Issued by NWS

Home | Current Version | Previous Version | Graphics & Text | Print | Product List | Glossary On
Versions: 1 2 3 4 5 6 7 8 9 10 11 12 13 14 15 16 17 18 19 20 21 22 23 24 25 26 27 28 29 30 31 32 33 34 35 36 37 38 39 40 41 42 43 44 45 46 47 48 49 50
479
ASUS43 KLSX 230757
RWRMO

WEATHER SUMMARY FOR MISSOURI
NATIONAL WEATHER SERVICE SPRINGFIELD MO
200 AM CST FRI FEB 23 2018

NOTE: "FAIR" INDICATES FEW OR NO CLOUDS BELOW 12,000 FEET WITH NO
       SIGNIFICANT WEATHER AND/OR OBSTRUCTIONS TO VISIBILITY.
       CURRENT SKY AND/OR WEATHER CONDITIONS ARE NOT AVAILABLE FOR
       CHILLICOTHE AND FARMINGTON.

MOZ001>031-035>038-043-044-053-054-230900-
...NORTHERN AND WESTERN MISSOURI...

CITY           SKY/WX    TMP DP  RH WIND       PRES   REMARKS
KANSAS CTY INT FRZ DRZL  32  31  96 W5        30.18S VSB 1/4 WCI  27
LEE`S SUMMIT   CLOUDY    33  33 100 W5        30.18R WCI  29
ST JOSEPH      CLOUDY    32  32 100 SW3       30.20R FOG
CHILLICOTHE      N/A     34  33  96 CALM      30.18F

$$
MOZ066>068-077>081-088>096-101>105-230900-
...SOUTHWEST MISSOURI...

CITY           SKY/WX    TMP DP  RH WIND       PRES   REMARKS
SPRINGFIELD    CLOUDY    43  43 100 W7        30.19S FOG
JOPLIN         CLOUDY    38  38 100 W6        30.22S FOG

$$
MOZ032>034-039>042-045>050-055>058-069>072-230900-
...CENTRAL MISSOURI...

CITY           SKY/WX    TMP DP  RH WIND       PRES   REMARKS
COLUMBIA       NOT AVBL
JEFFERSON CITY CLOUDY    43  42  97 CALM      30.19R FOG
ROLLA          CLOUDY    43  43 100 SW10      30.18S FOG
SEDALIA        CLOUDY    39  39 100 W6        30.20R
WARRENSBURG    CLOUDY    34  34 100 CALM      30.19F

$$
MOZ051-052-059>065-230900-
...EAST CENTRAL MISSOURI...

CITY           SKY/WX    TMP DP  RH WIND       PRES   REMARKS
ST LOUIS INTL  CLOUDY    46  46 100 S8        30.14F

$$
MOZ072>076-082>087-097>100-106>115-230900-
...SOUTH CENTRAL AND SOUTHEAST MISSOURI...

CITY           SKY/WX    TMP DP  RH WIND       PRES   REMARKS
CAPE GIRARDEAU LGT RAIN  52  50  93 S9        30.19S
POPLAR BLUFF   LGT RAIN  49  48  97 CALM      30.18F FOG
WEST PLAINS    FOG       45  44  97 W3        30.19R VSB 1/2

$$



USA.gov is the U.S. government's official web portal to all federal, state and local government web resources and services.